Date String (YYYY-MM-DD hh:mm:ss) UTC,Instrument flags,Ambient pressure (hPa),Sample flow (lpm),Bypass flow (lpm),Sample temperature (°C),Ambient temperature (°C),ASC tube jacket temperature (°C),LED temperature (°C),Box temperature (°C),Sample RH (%),Span deviation,Mass concentration (μg/m³),Mass concentration (μg/m³),Mass concentration (μg/m³)
DateTimeUTC,F1_M11,P_M11,Q1_M11,Q2_M11,T1_M11,T2_M11,T3_M11,T4_M11,T5_M11,U1_M11,ZSPAN_M11,X0_M11,X2_M11,X1_M11
2021-09-19 18:00:00,,0822.8,5.01,0.00,29.2,26.3,00.0,38.2,30.6,16.4,0001.7,0010.27,0006.24,0005.86
2021-09-19 18:01:00,,0822.8,5.00,0.00,29.1,25.8,00.0,38.2,30.5,16.4,0001.9,0010.45,0006.35,0005.95
2021-09-19 18:02:00,,0822.7,4.99,0.00,29.0,26.2,00.0,38.2,30.6,16.5,0002.4,0011.04,0006.41,0006.00
2021-09-19 18:03:00,,0822.7,5.00,0.00,29.0,26.6,00.0,38.2,30.6,16.6,0002.2,0011.44,0006.47,0006.07
2021-09-19 18:04:00,,0822.7,5.00,0.00,29.0,27.0,00.0,38.1,30.7,16.7,0001.9,0011.61,0006.53,0006.14
2021-09-19 18:05:00,,0822.7,5.01,0.00,29.0,27.4,00.0,38.1,30.8,16.5,0001.6,0012.59,0006.60,0006.20
2021-09-19 18:06:00,,0822.7,4.99,0.00,29.1,27.7,00.0,38.1,30.9,16.4,0002.1,0012.73,0006.71,0006.29
2021-09-19 18:07:00,,0822.7,5.01,0.00,29.1,27.9,00.0,38.1,31.0,16.2,0002.1,0012.67,0006.83,0006.41
2021-09-19 18:08:00,,0822.7,5.00,0.00,29.2,28.1,00.0,38.2,31.1,16.2,0002.1,0012.21,0006.92,0006.51
2021-09-19 18:09:00,,0822.6,4.99,0.00,29.2,28.3,00.0,38.2,31.1,15.9,0002.0,0012.33,0007.02,0006.61
2021-09-19 18:10:00,,0822.7,5.00,0.00,29.3,28.5,00.0,38.2,31.2,15.8,0002.4,0012.43,0007.08,0006.67
2021-09-19 18:11:00,,0822.7,5.01,0.00,29.3,28.4,00.0,38.2,31.2,15.6,0002.4,0012.48,0007.13,0006.72
2021-09-19 18:12:00,,0822.6,5.01,0.00,29.3,26.8,00.0,38.2,30.8,15.7,0002.0,0012.47,0007.17,0006.77
2021-09-19 18:13:00,,0822.6,5.00,0.00,29.1,25.8,00.0,38.2,30.5,15.8,0001.6,0012.10,0007.24,0006.82
2021-09-19 18:14:00,,0822.6,4.99,0.00,29.1,26.1,00.0,38.2,30.5,16.1,0001.7,0011.91,0007.29,0006.88
2021-09-19 18:15:00,,0822.6,5.00,0.00,29.0,26.5,00.0,38.2,30.6,16.0,0001.7,0012.47,0007.33,0006.93
2021-09-19 18:16:00,,0822.6,5.01,0.00,29.0,27.0,00.0,38.2,30.8,16.0,0001.5,0011.59,0007.34,0006.95
2021-09-19 18:17:00,,0822.6,5.01,0.00,29.1,27.4,00.0,38.1,30.9,16.2,0001.6,0011.47,0007.31,0006.96
2021-09-19 18:18:00,,0822.6,4.99,0.00,29.1,27.7,00.0,38.2,30.9,16.1,0001.8,0011.51,0007.32,0006.93
2021-09-19 18:19:00,,0822.6,5.01,0.00,29.2,28.0,00.0,38.2,31.0,16.1,0001.7,0011.37,0007.30,0006.89
2021-09-19 18:20:00,,0822.6,5.00,0.00,29.2,28.2,00.0,38.2,31.1,16.1,0001.6,0011.30,0007.25,0006.81
2021-09-19 18:21:00,,0822.6,4.98,0.00,29.3,28.3,00.0,38.2,31.2,16.0,0001.3,0011.35,0007.16,0006.73
2021-09-19 18:22:00,,0822.6,5.01,0.00,29.3,27.0,00.0,38.2,30.8,16.1,0001.4,0011.21,0007.05,0006.64
2021-09-19 18:23:00,,0822.6,5.00,0.00,29.1,25.8,00.0,38.2,30.5,16.1,0001.5,0011.06,0006.93,0006.53
2021-09-19 18:24:00,,0822.6,5.01,0.00,29.0,26.1,00.0,38.2,30.5,16.4,0001.3,0010.87,0006.78,0006.39
2021-09-19 18:25:00,,0822.6,5.00,0.00,29.0,26.5,00.0,38.1,30.6,16.6,0001.1,0010.69,0006.65,0006.26
2021-09-19 18:26:00,,0822.6,4.99,0.00,29.0,26.9,00.0,38.1,30.8,16.4,0001.3,0010.02,0006.55,0006.13
2021-09-19 18:27:00,,0822.6,5.01,0.00,29.1,27.4,00.0,38.1,30.9,16.3,0001.3,0010.10,0006.49,0006.04
2021-09-19 18:28:00,,0822.5,4.99,0.00,29.1,27.7,00.0,38.1,31.0,16.2,0000.6,0010.06,0006.40,0005.94
2021-09-19 18:29:00,,0822.6,5.00,0.00,29.2,28.0,00.0,38.1,31.0,16.1,0000.2,0009.96,0006.31,0005.84
2021-09-19 18:30:00,,0822.5,5.00,0.00,29.2,28.2,00.0,38.2,31.1,16.2,0000.2,0010.03,0006.22,0005.76
2021-09-19 18:31:00,,0822.5,4.99,0.00,29.3,28.4,00.0,38.2,31.2,16.3,-000.0,0010.08,0006.14,0005.71
2021-09-19 18:32:00,,0822.4,5.00,0.00,29.3,27.3,00.0,38.2,30.9,16.7,-000.1,0010.22,0006.10,0005.66
2021-09-19 18:33:00,,0822.4,5.00,0.00,29.1,25.9,00.0,38.2,30.5,16.5,-000.3,0010.84,0006.06,0005.62
2021-09-19 18:34:00,,0822.4,5.01,0.00,29.0,26.1,00.0,38.2,30.5,15.9,-000.3,0010.95,0006.09,0005.62
2021-09-19 18:35:00,,0822.4,4.99,0.00,29.0,26.5,00.0,38.2,30.7,15.6,-000.3,0011.08,0006.15,0005.67
2021-09-19 18:36:00,,0822.4,4.99,0.00,29.0,26.9,00.0,38.1,30.8,16.0,-000.2,0011.23,0006.22,0005.72
2021-09-19 18:37:00,,0822.4,5.00,0.00,29.1,27.4,00.0,38.1,30.9,16.1,-000.6,0011.42,0006.27,0005.77
2021-09-19 18:38:00,,0822.4,4.99,0.00,29.1,27.7,00.0,38.1,31.0,16.1,-000.6,0011.48,0006.30,0005.81
2021-09-19 18:39:00,,0822.4,5.02,0.00,29.2,28.0,00.0,38.1,31.0,16.1,-000.3,0011.47,0006.34,0005.84
2021-09-19 18:40:00,,0822.4,5.00,0.00,29.2,28.2,00.0,38.2,31.1,15.8,-000.1,0011.49,0006.37,0005.89
2021-09-19 18:41:00,,0822.4,5.00,0.00,29.2,27.2,00.0,38.2,30.9,15.7,0000.2,0011.72,0006.39,0005.93
2021-09-19 18:42:00,,0822.4,5.00,0.00,29.1,25.8,00.0,38.1,30.5,16.3,0000.4,0011.52,0006.45,0005.98
2021-09-19 18:43:00,,0822.3,4.99,0.00,29.0,25.9,00.0,38.1,30.4,16.5,0000.8,0012.11,0006.50,0006.03
2021-09-19 18:44:00,,0822.3,5.02,0.00,29.0,26.4,00.0,38.1,30.6,16.8,0000.8,0011.64,0006.55,0006.09
2021-09-19 18:45:00,,0822.3,4.99,0.00,29.0,26.8,00.0,38.1,30.7,17.0,0000.7,0011.56,0006.57,0006.11
2021-09-19 18:46:00,,0822.3,5.00,0.00,29.0,27.2,00.0,38.1,30.7,16.4,0000.9,0011.83,0006.60,0006.12
2021-09-19 18:47:00,,0822.2,5.00,0.00,29.0,27.6,00.0,38.1,30.8,16.5,0001.0,0011.84,0006.62,0006.12
2021-09-19 18:48:00,,0822.2,5.00,0.00,29.1,27.9,00.0,38.1,30.9,16.3,0001.4,0012.02,0006.66,0006.14
2021-09-19 18:49:00,,0822.2,5.00,0.00,29.1,28.1,00.0,38.1,31.0,16.6,0001.7,0011.83,0006.66,0006.17
2021-09-19 18:50:00,,0822.1,4.99,0.00,29.2,28.1,00.0,38.1,31.0,16.5,0001.5,0011.82,0006.68,0006.21
2021-09-19 18:51:00,,0822.1,5.01,0.00,29.1,26.6,00.0,38.1,30.6,16.7,0001.3,0011.94,0006.72,0006.24
2021-09-19 18:52:00,,0822.1,5.00,0.00,29.0,25.7,00.0,38.1,30.3,16.3,0000.7,0011.96,0006.78,0006.29
2021-09-19 18:53:00,,0822.1,5.00,0.00,28.9,26.1,00.0,38.1,30.4,16.2,0000.7,0011.93,0006.84,0006.36
2021-09-19 18:54:00,,0822.1,5.01,0.00,28.9,26.5,00.0,38.1,30.5,16.4,0000.8,0011.72,0006.93,0006.42
2021-09-19 18:55:00,,0822.1,4.99,0.00,28.9,26.9,00.0,38.0,30.7,16.5,0000.9,0011.96,0007.04,0006.48
2021-09-19 18:56:00,,0822.0,5.01,0.00,29.0,27.3,00.0,38.0,30.8,16.4,0001.1,0012.01,0007.13,0006.56
2021-09-19 18:57:00,,0821.9,4.99,0.00,29.0,27.7,00.0,38.0,30.9,16.5,0001.1,0011.88,0007.18,0006.63
2021-09-19 18:58:00,,0821.8,5.01,0.00,29.1,28.0,00.0,38.1,30.9,16.2,0001.2,0012.47,0007.36,0006.79
2021-09-19 18:59:00,,0821.8,5.00,0.00,29.1,28.2,00.0,38.1,31.0,16.0,0001.1,0012.75,0007.68,0007.11
